This demonstration page uses our WeatherBlox Daily Observations layout. Learn more.

Left ArrowRight Arrow

44.8408, -93.29828

Hourly Observations for September 3, 2018

Temp ( °F °C ) Dew Point ( °F °C ) Humidity (%) Winds ( mph kmh ) Pressure ( in mb ) Visibility ( mi km ) Precip ( " mm )
12:53 am 00:53 Mostly Cloudy 69 20.6 64 17.8 84 84 NNE 5 7 30.05 1018 10 16 0.00 0.00
1:53 am 01:53 Mostly Cloudy 69 20.6 64 17.8 84 84 Calm 30.07 1018 10 16 0.00 0.00
2:53 am 02:53 Mostly Cloudy 69 20.6 64 17.8 84 84 ENE 5 7 30.07 1018 10 16 0.00 0.00
3:53 am 03:53 Mostly Cloudy 69 20.6 62 16.7 78 78 ENE 7 11 30.07 1018 10 16 0.00 0.00
4:53 am 04:53 Mostly Cloudy 68 20 63 17.2 84 84 ENE 7 11 30.08 1019 10 16 0.00 0.00
5:53 am 05:53 Mostly Cloudy 68 20 63 17.2 84 84 NE 7 11 30.09 1019 10 16 0.00 0.00
6:53 am 06:53 Cloudy 68 20 63 17.2 84 84 ENE 7 11 30.11 1020 10 16 0.00 0.00
7:53 am 07:53 Cloudy 68 20 63 17.2 84 84 E 8 13 30.13 1020 10 16 0.00 0.00
8:53 am 08:53 Cloudy 69 20.6 63 17.2 81 81 ENE 8 13 30.14 1021 10 16 0.00 0.00
9:53 am 09:53 Cloudy 70 21.1 64 17.8 82 82 E 10 17 30.14 1021 10 16 0.00 0.00
10:34 am 10:34 Cloudy 71 21.7 65 18.3 81 81 E 13 20 30.12 1020 10 16 0.00 0.00
10:53 am 10:53 Cloudy 72 22.2 66 18.9 82 82 E 10 17 30.13 1020 10 16 0.00 0.00
11:53 am 11:53 Cloudy 74 23.3 68 20 82 82 ESE 9 15 30.12 1020 10 16 0.00 0.00
12:01 pm 12:01 Mostly Cloudy 74 23.3 68 20 82 82 ESE 10 17 30.09 1019 10 16 0.00 0.00
12:31 pm 12:31 Mostly Cloudy 75 23.9 68 20 79 79 SE 9 15 30.06 1018 10 16 0.00 0.00
12:53 pm 12:53 Cloudy 75 23.9 68 20 79 79 ESE 12 19 30.12 1020 10 16 0.00 0.00
1:15 pm 13:15 Cloudy 74 23.3 68 20 82 82 SE 12 19 30.09 1019 10 16 0.00 0.00
1:53 pm 13:53 Cloudy 73 22.8 68 20 84 84 SE 13 20 30.11 1020 10 16 0.00 0.00
2:39 pm 14:39 Cloudy 75 23.9 69 20.6 82 82 ESE 14 22 30.06 1018 10 16 0.00 0.00
2:53 pm 14:53 Cloudy 75 23.9 69 20.6 82 82 ESE 15 24 30.10 1019 10 16 0.00 0.00
3:17 pm 15:17 Cloudy 75 23.9 69 20.6 82 82 ESE 15 24 30.03 1017 10 16 0.00 0.00
3:41 pm 15:41 Cloudy with Light Rain 74 23.3 70 21.1 88 88 SE 13 20 30.06 1018 10 16 0.00 0.03
3:53 pm 15:53 Cloudy with Light Rain 74 23.3 70 21.1 88 88 ESE 14 22 30.09 1019 8 13 0.00 0.03
4:10 pm 16:10 Cloudy with Light Rain 74 23.3 70 21.1 88 88 ESE 15 24 30.06 1018 10 16 0.00 0.03
4:53 pm 16:53 Cloudy 73 22.8 69 20.6 87 87 ESE 16 26 30.09 1019 10 16 0.00 0.03
5:03 pm 17:03 Cloudy 73 22.8 69 20.6 87 87 ESE 14 22 30.06 1018 10 16 0.00 0.00
5:53 pm 17:53 Cloudy 72 22.2 70 21.1 94 94 SE 12 19 30.09 1019 10 16 0.00 0.03
6:17 pm 18:17 Cloudy with Light Rain 72 22.2 70 21.1 94 94 SE 9 15 30.06 1018 8 13 0.00 0.03
6:23 pm 18:23 Cloudy with Light Rain 71 21.7 70 21.1 96 96 SE 10 17 30.06 1018 8 13 0.00 0.03
6:34 pm 18:34 Cloudy with Light Rain 72 22.2 70 21.1 94 94 SE 10 17 30.06 1018 8 13 0.01 0.25
6:41 pm 18:41 Cloudy with Light Rain 71 21.7 71 21.7 100 100 SE 10 17 30.06 1018 8 13 0.01 0.25
6:53 pm 18:53 Cloudy with Light Rain 71 21.7 70 21.1 96 96 SE 10 17 30.07 1018 10 16 0.01 0.25
7:13 pm 19:13 Cloudy with Light Rain 71 21.7 70 21.1 96 96 ESE 10 17 30.06 1018 10 16 0.00 0.03
7:53 pm 19:53 Cloudy 71 21.7 70 21.1 96 96 SE 8 13 30.08 1019 10 16 0.01 0.25
8:53 pm 20:53 Cloudy 71 21.7 70 21.1 96 96 SE 7 11 30.09 1019 10 16 0.00 0.00
9:13 pm 21:13 Mostly Cloudy 71 21.7 70 21.1 96 96 ESE 7 11 30.06 1018 10 16 0.00 0.00
9:26 pm 21:26 Cloudy 71 21.7 70 21.1 96 96 ESE 8 13 30.06 1018 10 16 0.00 0.00
9:36 pm 21:36 Cloudy 71 21.7 70 21.1 96 96 ESE 9 15 30.06 1018 10 16 0.00 0.00
9:53 pm 21:53 Cloudy 71 21.7 70 21.1 96 96 ESE 9 15 30.09 1019 10 16 0.00 0.00
10:09 pm 22:09 Cloudy 71 21.7 70 21.1 96 96 SE 9 15 30.06 1018 10 16 0.00 0.00
10:24 pm 22:24 Cloudy 71 21.7 70 21.1 96 96 ESE 8 13 30.06 1018 10 16 0.00 0.00
10:39 pm 22:39 Cloudy 71 21.7 70 21.1 96 96 E 9 15 30.06 1018 10 16 0.00 0.00
10:53 pm 22:53 Cloudy 71 21.7 70 21.1 96 96 ESE 9 15 30.07 1018 10 16 0.00 0.00
11:53 pm 23:53 Cloudy 70 21.1 70 21.1 100 100 SE 9 15 30.06 1018 10 16 0.00 0.00

Powered by AerisWeather